Regional Weather Roundup
Issued by NWS

Home | Current Version | Previous Version | Text Only | Print | Product List | Glossary Off
Versions: 1 2 3 4 5 6 7 8 9 10 11 12 13 14 15 16 17 18 19 20 21 22 23 24 25 26 27 28 29 30 31 32 33 34 35 36 37 38 39 40 41 42 43 44 45 46 47 48 49 50

000
ASUS43 KLOT 242108
RWRIL

ILLINOIS REGIONAL WEATHER ROUNDUP
NATIONAL WEATHER SERVICE CHICAGO/ROMEOVILLE IL
300 PM CST TUE JAN 24 2017

NOTE: "FAIR" INDICATES FEW OR NO CLOUDS BELOW 12,000 FEET WITH NO
SIGNIFICANT WEATHER AND/OR OBSTRUCTIONS TO VISIBILITY.

* THESE STATIONS ARE NOT UNDER NWS QUALITY CONTROL. THEY ALSO MAY NOT
  REPORT WEATHER SUCH AS PRECIPITATION OR FOG.

ILZ001-002-007-009-015-016-024-242200-
NORTHWEST ILLINOIS

CITY           SKY/WX    TMP DP  RH WIND       PRES   REMARKS
MOLINE         CLOUDY    37  32  82 SE9       29.79F WCI  30
STERLING*      CLOUDY    37  33  85 E6        29.80F WCI  32
SAVANNA*       CLOUDY    36  32  86 SE5       29.83S WCI  32
$$

ILZ003-004-008-010-011-017-018-242200-
NORTH CENTRAL ILLINOIS

CITY           SKY/WX    TMP DP  RH WIND       PRES   REMARKS
ROCKFORD       CLOUDY    36  31  82 SE5       29.84S WCI  32
FREEPORT*      CLOUDY    35  32  88 SE6       29.84F WCI  30
ROCHELLE*      CLOUDY    37  32  84 CALM      29.83F
DE KALB*       CLOUDY    35  32  88 E3        29.83F
PERU*          CLOUDY    37  32  81 SE7       29.82F WCI  32
$$

ILZ005-006-012>014-019>023-242200-
NORTHEAST ILLINOIS

CITY           SKY/WX    TMP DP  RH WIND       PRES   REMARKS
CHICAGO-OHARE  CLOUDY    36  31  82 S5        29.85R WCI  32
CHICAGO-MIDWAY CLOUDY    38  31  76 CALM      29.85R
AURORA         CLOUDY    38  31  76 E5        29.84S WCI  34
LANSING*       CLOUDY    38  34  85 S5        29.86R WCI  34
JOLIET*        CLOUDY    39  33  78 CALM      29.86R
WAUKEGAN       CLOUDY    37  32  82 CALM      29.83S
DUPAGE AIRPORT CLOUDY    36  31  82 SW5       29.84R WCI  32
KANKAKEE*      CLOUDY    39  32  76 CALM      29.86R
WHEELING       CLOUDY    36  31  82 S3        29.86R
MORRIS*        CLOUDY    38  33  80 CALM      29.83F
ROMEOVILLE*    CLOUDY    37  34  89 CALM      29.85S
NORTHERLY ISL    N/A     35  31  85 E2          N/A
$$

LMZ740>746-242200-
SOUTHERN LAKE MICHIGAN

STATION/POSITION SKY/WX   TEMP    WIND        PRES    VSBY  WAVE
                          AIR SEA DIR/SP/G                  HT/PER
                          (F)     (DEG/KT/KT) (MB)    (MI)  (FT/S)
HARRISON CRIB              35      50/  4/  4   N/A
BURNHAM HARBOR             34      80/  4/  7   N/A
CALUMET HARBOR             34      60/  3/  4 1010.3R
BURNS HARBOR               34      20/  4/  4 1011.5S
$$

ILZ025>027-034>036-040-047-049-050-058-095>099-242200-
WEST-CENTRAL ILLINOIS

CITY           SKY/WX    TMP DP  RH WIND       PRES   REMARKS
QUINCY         CLOUDY    40  33  76 E16G22    29.69F
GALESBURG*     CLOUDY    38  33  82 E12       29.77F WCI  30
MACOMB*        CLOUDY    39  34  82 E13       29.78F WCI  32
JACKSONVILLE*  CLOUDY    43  35  73 E16       29.77R
PITTSFIELD*    CLOUDY    42  35  75 E8        29.72F
$$

ILZ028>032-037-038-041>044-048-051>054-059>061-242200-
CENTRAL ILLINOIS

CITY           SKY/WX    TMP DP  RH WIND       PRES   REMARKS
PONTIAC        CLOUDY    40  37  87 SE5       29.84F
BLOOMINGTON    CLOUDY    39  34  82 SE9       29.82F WCI  33
DECATUR        CLOUDY    41  36  82 SE13      29.81F
PEORIA         CLOUDY    39  33  79 SE7       29.81F WCI  34
LACON*         CLOUDY    39  33  80 SE6       29.81F WCI  35
LINCOLN*       CLOUDY    41  35  77 SE8       29.81S
SPRINGFIELD    PTSUNNY   45  35  68 SE12      29.80F
TAYLORVILLE    MOSUNNY   44  35  70 SE12      29.79F
$$

ILZ033-039-045-046-055>057-062-063-242200-
EAST-CENTRAL ILLINOIS

CITY           SKY/WX    TMP DP  RH WIND       PRES   REMARKS
CHAMPAIGN      CLOUDY    41  33  73 SE8       29.84F
RANTOUL*         N/A    N/A N/A N/A MISG        N/A
MATTOON        CLOUDY    41  34  76 SE6       29.82F
PARIS*         CLOUDY    40  35  80 CALM      29.87S
$$

ILZ079-100>102-242200-
SOUTHWEST ILLINOIS

CITY           SKY/WX    TMP DP  RH WIND       PRES   REMARKS
ALTON          PTSUNNY   46  36  66 SE16      29.75F
BELLEVILLE     CLOUDY    49  37  62 E16       29.75F
CAHOKIA*       MOSUNNY   51  35  54 SE16G24   29.74F
SPARTA*        MOSUNNY   48  35  58 SE13G18   29.78S
$$

ILZ064>066-069>071-074>076-080>082-084>086-088>090-092>094-242200-
SOUTH-CENTRAL ILLINOIS

CITY           SKY/WX    TMP DP  RH WIND       PRES   REMARKS
CARBONDALE     SUNNY     51  37  58 SE12      29.78F
CAIRO*         SUNNY     53  38  56 SE10      29.80F
EFFINGHAM*     CLOUDY    45  38  75 E9        29.85S
MARION         PTSUNNY   55  34  44 SE10      29.81F
MT. VERNON     MOSUNNY   48  36  63 SE8       29.81F
CENTRALIA*     MOSUNNY   47  37  68 SE13      29.78F
SALEM*         CLOUDY    50  35  57 SE9       29.80F
METROPOLIS*    SUNNY     55  36  49 CALM      29.82F HAZE
$$

ILZ067-068-072-073-078-083-087-091-242200-
SOUTHEAST ILLINOIS

CITY           SKY/WX    TMP DP  RH WIND       PRES   REMARKS
LAWRENCEVILLE  CLOUDY    43  36  76 S6        29.87F
FLORA*         MOSUNNY   48  38  66 S9        29.85R
FAIRFIELD*     SUNNY     47  37  68 SE5       29.83F
HARRISBURG*    CLOUDY    52  38  57 SE6       29.83F
ROBINSON*      CLOUDY    41  35  77 SE7       29.88F
CARMI*         MOSUNNY   47  37  69 SE6       29.85F
$$

ABBREVIATIONS USED IN REMARKS
   TC - TEMPERATURE IN CELSIUS
  WCI - WIND CHILL INDEX
   HX - HEAT INDEX
  VSB - VISIBILITY
$$




USA.gov is the U.S. government's official web portal to all federal, state and local government web resources and services.